Simultaneous Nadir Overpasses (SNOs) Predictions

Prediction of SNOs between AQUA and NOAA-19 Satellite Orbit:

Table of predicted SNOs for the next 14.0 days since TLE Epoch: 11/10/2017
Index Date (AQUA) Time (AQUA) Lat,Lon (AQUA) SZA (AQUA ) Date (NOAA-19) Time (NOAA-19) Lat,Lon (NOAA-19) SZA (NOAA-19 ) Distance(km) Time Diff (sec)
1 11/12/2017 06:11:03 -80.91,-132.78 79.71 11/12/2017 06:10:57 -80.91,-132.75 79.71 0.82 6
2 11/14/2017 11:44:48 80.91, -36.29 100.90 11/14/2017 11:44:45 80.91, -36.22 100.89 1.28 3
3 11/16/2017 17:18:33 -80.90, 60.41 78.56 11/16/2017 17:18:24 -80.91, 60.26 78.54 2.66 9
4 11/18/2017 22:52:18 80.92, 156.75 102.02 11/18/2017 22:52:12 80.91, 156.89 102.01 2.70 6
5 11/21/2017 04:26:03 -80.92,-106.63 77.48 11/21/2017 04:25:50 -80.91,-106.45 77.49 3.09 13




NCC Satellite Simultaneous Nadir Overpasses (SNOs) Prediction Service
